Погода в Богучаре

Хотите узнать прогноз погоды в Богучаре? Тогда Вам сюда: Погода в Богучаре

Поиск расширенной информации на нашем сайте:

Полезная информация:

Новости сайта



02.01.2020
Опубликован Долгосрочный прогноз погоды по городам России и ближнего зарубежья на январь 2020 года.
Карты: Прогноз на январь и февраль 2020 года, Сравнение прогнозируемой аномалии приземной температуры воздуха на январь 2020 года по разным моделям.




Погода в Богучаре - сегодня

Время (UTC), дата Ветер
(°,м/с) 
Видим.   Явления Облачность Т
(°С)
Тd
(°С)
f(%) Тe
(°С)
Pmin
(гПа)
dP
(гПа)
Po
(мм)
O2
(г/м3)
Тmin Tmax R s Состояние
почвы
15 18.10.20 290 (З) 4{11}  20000 м    8/4 1000 м средняя 
[Sc|Ac lent]
+15.6 +4 46 +16  1009.6  0.4  750  285    +20.3       
18 18.10.20 270 (З) 10 км    ясно 
+11.6 +5.3 65 +13  1014.8  1.9  754  290           
21 18.10.20 270 (З) 10 км    ясно 
+9.7 +5.1 73 +10  1015.9  754  293           
00 19.10.20 250 (З) 10 км    ясно 
+6.5 +3.7 82 +7  1017.8  1.8  756  297           
03 19.10.20 270 (З) 10 км    ясно 
+3.6 +0.7 81 +4  1019  1.1  756  301  +3.6         
06 19.10.20 180 (Ю) 20000 м    4/0 верхняя 
[Ci fib]
+4.5 +2.5 87 +5  1020.9  1.9  758  300  +1.9         
09 19.10.20 160 (Ю) 20000 м    3/0 верхняя 
[Ci fib]
+11.7 +0.3 45 +12  1020.4  -0.3  758  293           
12 19.10.20 250 (З) 20000 м    8/3 1000 м кучево-дожд., верхняя 
[Cb calv|Cc]
+13.4 +0.7 42 +13  1018.7  -1.6  756  290           
15 19.10.20 250 (З) 10 км    8/6 600 м кучево-дожд., верхняя 
[Cb calv|Ci]
+10.9 +1.4 52 +12  1018.9  0.1  757  293    +13.8       
18 19.10.20 250 (З) 10 км    9/0 средняя 
[As op]
+8.1 +2.4 67 +9  1019.4  0.4  757  296           
21 19.10.20 230 (ЮЗ) 10 км    9/0 средняя 
[Ac trans]
+6.7 +2.6 75 +8  1020.2  0.8  757  297           
00 20.10.20 тихо ()   10 км    ясно 
+4.2 +1.7 84 +4  1021.1  0.8  758  301           
03 20.10.20 тихо ()   10 км    ясно 
+2.6 +1.8 94 +3  1022.5  1.3  759  303  +2.6         
06 20.10.20 230 (ЮЗ) 20000 м    ясно 
+6.1 +3.5 83 +6  1023.4  760  299  +1.4         
09 20.10.20 250 (З) 20000 м    3/3 1000 м 
[Cu hum]
+11.4 -3 36 +11  1023.1  -0.1  760  294           
12 20.10.20 270 (З) 5{10}  20000 м    8/8 1000 м 
[Cu hum]
+12 -2.7 36 +11  1022.1  -1  759  293           
15 20.10.20 250 (З) 10 км    6/6 1000 м 
[Sc]
+9 -2.4 45 +9  1022  -0.2  759  296    +12.3       
18 20.10.20 250 (З) 10 км    ясно 
+7 -2.2 52 +7  1022.6  0.6  759  299           
21 20.10.20 250 (З) 10 км    ясно 
+3.9 -1.6 67 +3  1024  1.2  760  302           
00 21.10.20 250 (З) 10 км    ясно 
+2.3 -1.7 75 +2  1025.2  1.1  761  304           
03 21.10.20 230 (ЮЗ) 10 км    ясно 
+0.2 -2.5 82 +1  1026.5  1.2  762  307  +0.2         
06 21.10.20 230 (ЮЗ) 10 км    ясно 
+3 -0.8 76 +2  1028  1.6  763  304  -0.7         
09 21.10.20 290 (З) 20000 м    8/4 1000 м верхняя 
[Cu hum|Cc]
+7.8 -2.1 50 +7  1027.7  -0.1  763  299           
12 21.10.20 270 (З) 20000 м    10/0 средняя 
[Ac und]
+9 -2.8 43 +8  1026.8  -0.8  762  298           
15 21.10.20 тихо ()   10 км    10/0 средняя 
[Ac As]
+7.6 -1.7 52 +8  1026.1  -0.7  762  299    +9.6       
Время (UTC), дата Ветер
(°,м/с) 
Видим.   Явления Облачность Т
(°С)
Тd
(°С)
f(%) Тe
(°С)
Pmin
(гПа)
dP
(гПа)
Po
(мм)
O2
(г/м3)
Тmin Tmax R s Состояние
почвы

Для получения пояснительной информации подведите курсор к названию столбца.

ПОГОДА в Богучаре - архив

Всё, что Вы хотите узнать о погоде в Богучаре - удобно и подробно!

Выберите нужную дату (начиная с 1 января 2019* года) и нажмите кнопку "Найти".
Будут отображены архивные сводки погоды по пункту Богучар, начиная с указанной даты.


Отображать данные в формате CSV (для использования в таблицах Excel)


Внимание! Наш архив погоды предназначен исключительно для личного некоммерческого использования в познавательных целях. Если Вам необходимы официальные справки о состоянии погоды (для производственных, юридических, коммерческих и т.п. целей), обращайтесь в органы Росгидромета.

*Примечание: данная дата относится к архиву по метеостанциям СССР (Россия, СНГ, Балтия).
Архив по метеостанциям Зарубежной Европы и Азии (кроме Китая) хранится 10 дней, по другим регионам земного шара (Китай, Африка, Америка, Австралия, Океания) - 1 день.

Богучар - район местоположения метеостанции


Название, широта, долгота, высота метеостанции:
Богучар 49.9°ш. 40.6°д. 84 м над ур. моря [Российская Федерация]

Дополнительная информация

В oтличие oт бoльшинства пoгoдных сайтoв мы публикуем пoдрoбную метеoинфoрмацию в детальнoм прoфессиoнальнoм фoрмате.

Характеристики температуры и влажнoсти вoздуха измеряются на высoте 2 м в тени вдали oт зданий и деревьев.
Скoрoсть ветра измеряется на высoте 10 м (на урoвне рoста челoвека скoрoсть ветра ниже в 1.5-2 раза). Если метеoстанция нахoдится в гoрoде или в лесу, тo скoрoсть ветра занижена на 2-4 м/с пo сравнению с oткрытым местoм. Скoрoсть ветра над акватoриями крупных рек и oзёр, а также на вершинах хoлмoв на 2-5 м/с выше, чем в oбычных услoвиях.
Атмoсфернoе давление в разных тoчках местнoсти мoжет значительнo oтличаться oт давления на метеoстанции, в зависимoсти oт услoвий рельефа (при пoдъёме на 10 м давление пoнижается примернo на 1 мм рт.ст.).